Location: Muenchen
(48.1800°N, 11.5800°E)
Time: 22:50:43
(UTC+02:00)

ISS - Visible Passes

Search period start: 22 October 2017 00:00
Search period end: 31 October 2017 23:00
Orbit: 401 x 408 km, 51.6° (Epoch: 23 October)

Date Brightness Start Highest point End Pass type
(mag) Time Alt. Az. Time Alt. Az. Time Alt. Az.
28 Oct -0.5 07:05:32 10° SSE 07:06:32 11° SE 07:07:32 10° ESE visible
30 Oct -1.3 05:55:16 10° SSW 05:57:52 22° SE 06:00:28 10° E visible
31 Oct -0.9 05:04:00 10° SSE 05:05:40 13° SE 05:07:20 10° ESE visible
